Regional Weather Roundup
Issued by NWS

Home | Current Version | Previous Version | Text Only | Print | Product List | Glossary On
Versions: 1 2 3 4 5 6 7 8 9 10 11 12 13 14 15 16 17 18 19 20 21 22 23 24 25 26 27 28 29 30 31 32 33 34 35 36 37 38 39 40 41 42 43 44 45 46 47 48 49 50
189
ASUS44 KEWX 051511
RWRTX
SOUTH TEXAS REGIONAL WEATHER ROUNDUP
NATIONAL WEATHER SERVICE AUSTIN/SAN ANTONIO TX
900 AM CST MON DEC 05 2016

NOTE: "FAIR" INDICATED FEW OR NO CLOUDS BELOW 12,000 FEET WITH NO
SIGNIFICANT WEATHER AND/OR OBSTRUCTIONS TO VISIBILITY.

* - THESE STATIONS ARE NOT NWS OR FAA STATIONS...AND ARE NOT SUBJECT
    TO NWS AND FAA QUALITY CONTROL.

TXZ171-172-183>190-051600-
TEXAS HILL COUNTRY AND EDWARDS PLATEAU

CITY           SKY/WX    TMP DP  RH WIND       PRES   REMARKS
JUNCTION       LGT RAIN  45  45 100 E6        29.89F FOG     WCI  42
*LLANO         CLOUDY    46  46 100 CALM      29.98R
BURNET         LGT RAIN  46  44  93 N5        29.92F FOG     WCI  44
*HORSESHOE BAY DRIZZLE   47  46  98 NW3       29.92F
*KERRVILLE     DRIZZLE   45  44  96 N5        29.92S WCI  43
*FREDERICKSBRG CLOUDY    45  44  96 NW3       29.92F
*ROCKSPRINGS   NOT AVBL
*BOERNE STAGE  CLOUDY    45  45 100 CALM      29.92S
*CASTROVILLE   CLOUDY    49  49  99 NW6       29.93S WCI  47
HONDO          CLOUDY    51  50  96 NE8       29.91R
*UVALDE        CLOUDY    49  48  97 CALM      29.94R
DEL RIO        CLOUDY    49  48  97 NW7       29.94S WCI  46
LAUGHLIN AFB   NOT AVBL
CARRIZO SPRGS  CLOUDY    50  50 100 NW6       29.93S WCI  48
*EAGLE PASS    PTSUNNY   52  48  87 MISG      29.95S
$$

TXZ173-191>194-202-209-217>225-228-051600-
CENTRAL AND SOUTH CENTRAL TEXAS

CITY           SKY/WX    TMP DP  RH WIND       PRES   REMARKS
GEORGETOWN     LGT RAIN  46  45  93 NW5       29.91R WCI  44
AUSTIN/BERGSTM LGT RAIN  49  48  97 NW6       29.90S FOG     WCI  46
AUSTIN/MABRY   RAIN      48  47  96 VRB3      29.91S FOG
*AUSTIN/EXEC   RAIN      46  46 100 N10       29.90S WCI  41
*LAGO VISTA    LGT RAIN  47  46  97 CALM      29.91R
SAN MARCOS     LGT RAIN  48  46  93 NW8       29.90S WCI  45
NEW BRAUNFELS  LGT RAIN  50  48  93 NW7       29.90S WCI  47
RANDOLPH AFB   NOT AVBL
PT SAN ANTONIO NOT AVBL
SAN ANTONIO    LGT RAIN  49  48  97 W6        29.91S WCI  46
STINSON FIELD  CLOUDY    51  48  89 NW8       29.89F
*PLEASANTON    LGT RAIN  49  48  97 NW6       29.92S WCI  47
*LA GRANGE     LGT RAIN  50  49  95 N5        29.85R WCI  49
*GIDDINGS      RAIN      47  47  97 N6        29.90R WCI  45
*GONZALES      CLOUDY    50  50 100 N7        29.87F WCI  47
$$

TXZ163>164-176>182-195>201-210>213-226-227-235-051600-
SOUTHEAST TEXAS

CITY           SKY/WX    TMP DP  RH WIND       PRES   REMARKS
COLLEGE STN    LGT RAIN  49  47  93 NE13      29.86F WCI  44
*BRYAN         NOT AVBL
*CALDWELL      NOT AVBL
*CROCKETT      LGT RAIN  46  45  93 NE10      29.91S WCI  41
*BRENHAM       CLOUDY    50  50  98 N5        29.85F WCI  49
HUNTSVILLE     LGT RAIN  48  46  93 VRB6      29.86F WCI  45
CONROE         CLOUDY    49  47  93 N6        29.85F WCI  46
HOUSTON BUSH   CLOUDY    51  50  96 N9        29.83F
HOUSTON HOBBY  TSTM      53  51  93 NE8       29.83S FOG
*HOUSTON SW AP LGT RAIN  52  51  97 NE9       29.83R
PEARLAND       RAIN      54  51  90 NE8       29.84S FOG
HOUSTON HOOKS  CLOUDY    50  49  96 NE5       29.84S WCI  48
ELLINGTON FLD  NOT AVBL
SUGAR LAND     LGT RAIN  52  52 100 N7        29.82S
*HOUSTON EXEC    N/A     50  48  93 NE7       29.85R WCI  47
*CLEVELAND MUN LGT RAIN  50  49  96 CALM      29.85F
*WHARTON       CLOUDY    51  50  97 N6        29.84F
*COLUMBUS      CLOUDY    50  48  94 NE5       29.85S WCI  48
*EAGLE LAKE    CLOUDY    53  52  97 N12       29.83S
$$

TXZ214>216-236>238-051600-
THE UPPER TEXAS COAST

CITY           SKY/WX    TMP DP  RH WIND       PRES   REMARKS
*ORANGE        CLOUDY   N/A N/A N/A NE13      29.84F
PORT ARTHUR    HVY RAIN  50  48  93 N15       29.83S FOG     WCI  45
GALVESTON      LGT RAIN  53  52  96 N17G24    29.85R
ANGLETON       CLOUDY    53  51  93 N9        29.82S
*BAY CITY      LGT RAIN  53  53  99 NE10      29.81F
PALACIOS       CLOUDY    51  51 100 NW8       29.83R
$$

TXZ229>234-239>247-051600-
TEXAS COASTAL BEND AND RIO GRANDE PLAINS

CITY           SKY/WX    TMP DP  RH WIND       PRES   REMARKS
VICTORIA       CLOUDY    50  49  96 NW10      29.87R WCI  46
*BEEVILLE      CLOUDY    44  44 100 NW9       29.89F FOG     WCI  39
ROCKPORT         N/A    N/A N/A N/A MISG      29.89R
*PORT ARANSAS  CLOUDY    51  51  98 NW20G25   29.86S
*PORT LAVACA   CLOUDY    51  51 100 NW8       29.86R
*INGLESIDE     DRIZZLE   53  51  94 NW14G20   29.87S
CORPUS CHRISTI LGT RAIN  52  51  97 NW18      29.88S
CORPUS NAS     CLOUDY    53  50  89 NW17      29.87S
*ROBSTOWN      CLOUDY    53  53  99 NW15      29.89F
ALICE          CLOUDY    52  50  93 N13       29.89S
KINGSVILLE NAS CLOUDY    53  53 100 N16       29.89F
COTULLA        CLOUDY    53  49  86 N6        29.92F
*FAITH RANCH   CLOUDY    50  50 100 VRB6G13   29.95R WCI  48
LAREDO         CLOUDY    52  49  89 NW9       29.94R
$$

TXZ248>255-051600-
DEEP SOUTH TEXAS

CITY           SKY/WX    TMP DP  RH WIND       PRES   REMARKS
BROWNSVILLE    CLOUDY    55  50  83 NW9       29.90R
PORT ISABEL    CLOUDY    54  51  90 NW13      29.89R
*SOUTH PADRE     N/A     55  50  82 NW16G22   29.89S
HARLINGEN      CLOUDY    55  53  93 NW12      29.89S
*HEBBRONVILLE  CLOUDY    51  49  94 NW9       29.91S
MCALLEN        CLOUDY    57  52  83 NW12      29.91S
*WESLACO       LGT RAIN  54  51  89 NW8       29.90R
FALFURRIAS     CLOUDY    54  49  86 NW8       29.90R
EDINBURG       FOG       56  52  86 NW8       29.91R VSB 1
*ZAPATA        CLOUDY    52  50  93 NW9       29.92S
$$

TXZ213>215-236>238-242>244-246-247-251-254-255-051600-
CMAN STATIONS

STATION/POSITION TIME  TEMP    WIND        PRES    WAVE
                       AIR SEA DIR/SP/G            HT/PER
                 (UTC) (F)     (DEG/KT/KT) (MB)    (FT/S)
SABINE PASS      1448   50 60   20/ 18/ 21 1010.6
SEA RIM ST PARK  1500   51      30/ 18/ 21 1009.8
NORTH JETTY/GLS  1448   52 62   10/ 15/ 23   N/A
EAGLE POINT      1448   53 59   40/ 12/ 15 1009.9
MORGANS POINT    1448   52 62   20/  7/  9 1010.2
PORT O`CONNOR    1448   52     280/  9/ 11 1010.3
PORT ARANSAS     1500   52 64  300/ 12/ 16 1010.9
MALAQUITE BEACH  1448   52 64  310/ 16/ 19 1012.2
BAFFIN BAY       1448   53 62  320/ 19/ 23 1011.9
PORT ISABEL      1448   55 73  350/ 12/ 17 1011.8
$$

GMZ080-GMZ150>470-051600-
OFFSHORE BUOY REPORTS

STATION/POSITION TIME  TEMP    WIND        PRES    WAVE
                       AIR SEA DIR/SP/G            HT/PER
                 (UTC) (F)     (DEG/KT/KT) (MB)    (FT/S)
20 E GALVESTON   1450   58 68   30/ 21/ 25 1008.1    5/ 5
90 E PT ARANSAS  1450   69 77  340/ 19/ 23 1007.5    7/ 8
35 NE PT MANSFLD 1450   60 76  310/ 17/ 23 1010.6    8/ 8
200 E PT ISABEL  1450   80 79  200/ 16/ 21 1008.0    6/ 7
$$




USA.gov is the U.S. government's official web portal to all federal, state and local government web resources and services.